Airfield :
LOGIN :

Register | Disclaimer

   EN    FR    IT 

 










Legend :    VFR   Marginal VFR   IFR   Intensive IFR   Very Intensive IFR
Visi :
Ceiling :
>= 8 km
>= 3000ft
5 to 8 km
1000 to 3000 ft
1500m to 5 km
500 to 1000 ft
800 to 1500m
200 to 500 ft
< 800m
< 200 ft
Symbols :   Thunderstorms  Fog  Heavy snow  Heavy precipitations  Wind > 20 kt
SIGMETs :     Misc.  Thunderstorms  Icing  Turbulence  Mountain Waves  Volcanic Ashes






- Airport Elevation : 26 ft


ETNT - Wittmundhaven AB

CURRENT METAR :
  • 270820Z 10008KT 7000 BKN005 03/02 Q0987 YLO

EXPIRED METARs :
  • 270720Z 11009KT 7000 -DZ BKN004 03/02 Q0986 YLO
  • 270620Z 11007KT 9000 -DZ BKN005 03/03 Q0985 YLO

TAF TAF ETNT
Valid from the 27 at 09:00 until the 27 at 18:00 UTC


270819Z 2709/2718 12008KT 7000 -RADZ BKN008 BKN020
TEMPO 2709/2712 13012KT 3000 RADZ BKN004 BKN010
PROB30 2709/2711 12015KT 1000 -RADZ OVC002 BY ETGL



MET'MAP, your aeronautical weather chart ! - Copyright ORBIFLY December 2007 - Disclaimer

ORBIFLY MET'MAP TEAM :

Programming & Development : Alexandra Zaïnal
Concept & original design : Baudouin d'Aumeries
Assistance for programming : Marc-Olivier Méhu
Technical & hardware support : Manuel Goepfert

Contact : metmap@orbifly.com




SOURCES & CREDITS :

   NOAA